Weather History for New Bern, NC

Change the Weather History Date:

Thursday, February 7, 2013

  Actual Average Record
Temperature  
Mean Temperature 51 °F 46 °F  
Max Temperature 62 °F 57 °F 73 °F (1989)
Min Temperature 39 °F 35 °F 19 °F (1978)
Degree Days  
Heating Degree Days 14 19  
Month to date heating degree days 113 137  
Since 1 July heating degree days 1557 1777  
Cooling Degree Days 0 0  
Month to date cooling degree days 0 0  
Year to date cooling degree days 7 1  
Growing Degree Days 1 (Base 50)    
Moisture  
Dew Point 46 °F    
Average Humidity 75    
Maximum Humidity 89    
Minimum Humidity 60    
Precipitation  
Precipitation 0.97 in 0.12 in 1.50 in (1967)
Month to date precipitation 0.97 0.88  
Year to date precipitation 2.80 4.90  
Snow  
Snow 0.00 in - - ()
Month to date snowfall 0.0  
Since 1 July snowfall 0.0  
Snow Depth 0.00 in    
Sea Level Pressure  
Sea Level Pressure 30.17 in    
Wind  
Wind Speed 10 mph (ENE)    
Max Wind Speed 24 mph    
Max Gust Speed 33 mph    
Visibility 6 miles    
Events Rain    
T = Trace of Precipitation, MM = Missing Value Source: NWS Daily Summary

Daily Weather History Graph

Daily Weather History Graph

Search for Another Location

Airport:

Trip Planner

Search our weather history database for the weather conditions in past years. The results will help you decide how hot, cold, wet, or windy it might be!

Date:

Astronomy

Feb. 07, 2013 Rise Set
Actual Time 7:01 AM EST 5:43 PM EST
Civil Twilight 6:35 AM EST 6:09 PM EST
Nautical Twilight 6:05 AM EST 6:39 PM EST
Astronomical Twilight 5:36 AM EST 7:09 PM EST
Moon 4:36 AM EST (2/7) 3:08 PM EST (2/7)
Length of Visible Light 11h 33m
Length of Day
10h 41m
Waning Crescent, 9% of the Moon is Illuminated
Feb 7
Waning Crescent
Feb 10
New
Feb 17
First Quarter
Feb 25
Full
Mar 4
Last Quarter

Hourly Weather History & Observations

Time (EST) Temp. Windchill Dew Point Humidity Pressure Visibility Wind Dir Wind Speed Gust Speed Precip Events Conditions
12:54 AM 41.0 °F 39.0 °F 37.9 °F 89% 30.31 in 7.0 mi North 3.5 mph - N/A   Clear
1:54 AM 42.1 °F 39.2 °F 37.9 °F 85% 30.28 in 8.0 mi NE 4.6 mph - N/A   Clear
2:54 AM 44.1 °F 40.8 °F 39.9 °F 85% 30.27 in 9.0 mi ENE 5.8 mph - N/A   Clear
3:54 AM 44.1 °F 40.8 °F 39.0 °F 82% 30.27 in 9.0 mi NE 5.8 mph - N/A   Clear
4:54 AM 42.1 °F 40.2 °F 37.9 °F 85% 30.29 in 9.0 mi NE 3.5 mph - N/A   Clear
5:54 AM 42.1 °F 39.2 °F 37.9 °F 85% 30.29 in 9.0 mi NE 4.6 mph - N/A   Clear
6:54 AM 43.0 °F 39.5 °F 39.0 °F 86% 30.30 in 8.0 mi NE 5.8 mph - N/A   Clear
7:54 AM 46.0 °F 41.9 °F 41.0 °F 83% 30.30 in 7.0 mi NE 8.1 mph - N/A   Clear
8:54 AM 48.9 °F - 42.1 °F 77% 30.30 in 10.0 mi ENE 10.4 mph - N/A   Clear
9:18 AM 51.8 °F - 42.8 °F 71% 30.30 in 2.0 mi NE 9.2 mph - N/A   Haze
9:25 AM 51.8 °F - 42.8 °F 71% 30.31 in 7.0 mi NE 10.4 mph - N/A   Clear
9:54 AM 54.0 °F - 44.1 °F 69% 30.31 in 7.0 mi ENE 10.4 mph - N/A   Clear
10:54 AM 57.9 °F - 45.0 °F 62% 30.30 in 10.0 mi ENE 12.7 mph 19.6 mph N/A   Clear
11:54 AM 61.0 °F - 46.0 °F 58% 30.27 in 10.0 mi East 12.7 mph 21.9 mph N/A   Clear
12:54 PM 61.0 °F - 46.0 °F 58% 30.23 in 10.0 mi East 13.8 mph 21.9 mph N/A   Mostly Cloudy
1:54 PM 60.1 °F - 46.9 °F 62% 30.22 in 10.0 mi East 10.4 mph 21.9 mph N/A   Overcast
2:54 PM 59.0 °F - 46.9 °F 64% 30.18 in 10.0 mi East 13.8 mph 20.7 mph N/A   Overcast
3:54 PM 55.9 °F - 48.9 °F 77% 30.18 in 6.0 mi East 10.4 mph 24.2 mph 0.01 in Rain Light Rain
4:54 PM 54.0 °F - 50.0 °F 86% 30.16 in 5.0 mi ENE 11.5 mph - 0.05 in Rain Light Rain
5:54 PM 53.1 °F - 48.0 °F 83% 30.15 in 5.0 mi NE 12.7 mph 20.7 mph 0.05 in Rain Rain
6:31 PM 51.8 °F - 48.2 °F 88% 30.14 in 4.0 mi NE 10.4 mph - 0.06 in Rain Rain
6:49 PM 51.8 °F - 48.2 °F 88% 30.13 in 4.0 mi NE 12.7 mph - 0.08 in Rain Rain
6:54 PM 52.0 °F - 48.9 °F 89% 30.13 in 4.0 mi NE 15.0 mph - 0.09 in Rain Rain
7:54 PM 52.0 °F - 48.9 °F 89% 30.10 in 5.0 mi NE 12.7 mph - 0.10 in Rain Rain
8:54 PM 52.0 °F - 48.9 °F 89% 30.07 in 5.0 mi NE 17.3 mph - 0.11 in Rain Rain
9:03 PM 51.8 °F - 48.2 °F 88% 30.06 in 4.0 mi NE 15.0 mph 20.7 mph 0.03 in Rain Heavy Rain
9:14 PM 51.8 °F - 48.2 °F 88% 30.05 in 4.0 mi NE 17.3 mph - 0.06 in Rain Heavy Rain
9:22 PM 53.6 °F - 50.0 °F 88% 30.06 in 4.0 mi ENE 15.0 mph 23.0 mph 0.08 in Rain Heavy Rain
9:54 PM 53.1 °F - 50.0 °F 89% 30.04 in 4.0 mi ENE 16.1 mph 29.9 mph 0.18 in Rain Heavy Rain
10:10 PM 53.6 °F - 50.0 °F 88% 30.01 in 6.0 mi ENE 16.1 mph 21.9 mph 0.04 in Rain Rain
10:54 PM 55.0 °F - 51.1 °F 86% 29.99 in 5.0 mi East 20.7 mph 27.6 mph 0.14 in Rain Rain
11:12 PM 55.4 °F - 51.8 °F 88% 29.97 in 5.0 mi ENE 20.7 mph 28.8 mph 0.06 in Rain Heavy Rain
11:17 PM 55.4 °F - 51.8 °F 88% 29.97 in 4.0 mi East 17.3 mph 27.6 mph 0.08 in Rain Heavy Rain
11:24 PM 53.6 °F - 51.8 °F 94% 29.96 in 4.0 mi ENE 13.8 mph 25.3 mph 0.12 in Rain Heavy Rain
11:54 PM 54.0 °F - 50.0 °F 86% 29.93 in 6.0 mi East 9.2 mph 25.3 mph 0.22 in Rain Rain